KA5RUC Weather Reports


time (UTC)temp
C
wind
direction
speed
KPH
gust
KPH
rain 1hr
cm
rain 24hr
cm
rain mn
cm
humidity
%
barometer
mb
20260509013326 13 304 0.0 0.0 0.00 0.00 0.03 80 1011.2
20260509012833 13 304 0.0 0.0 0.00 0.00 0.03 79 1011.2
20260509012320 14 304 0.0 0.0 0.00 0.00 0.03 78 1011.2
20260509011831 14 304 0.0 0.0 0.00 0.00 0.03 76 1011.3
20260509011317 15 304 0.0 0.0 0.00 0.00 0.03 75 1011.3
20260509010828 15 293 1.6 0.0 0.00 0.00 0.03 73 1011.3
20260509010335 15 296 1.6 0.0 0.00 0.00 0.03 71 1010.9
20260509005823 15 348 1.6 0.0 0.00 0.00 0.03 70 1010.9
20260509005334 15 284 1.6 0.0 0.00 0.00 0.03 70 1010.9
20260509004822 15 290 1.6 0.0 0.00 0.00 0.03 71 1010.7
20260509002822 15 286 0.0 0.0 0.00 0.00 0.03 74 1010.5
20260509002330 15 286 0.0 0.0 0.00 0.00 0.03 74 1010.5
20260509001818 15 286 0.0 0.0 0.00 0.00 0.03 74 1010.5
20260509001326 15 286 0.0 0.0 0.00 0.00 0.03 73 1010.5
20260509000325 15 286 0.0 0.0 0.00 0.00 0.03 74 1010.8
20260508235832 15 286 0.0 0.0 0.00 0.00 0.03 74 1010.8
20260508235323 15 286 0.0 0.0 0.00 0.00 0.03 75 1010.8
20260508234832 15 286 0.0 0.0 0.00 0.00 0.03 75 1010.7
20260508234320 15 286 0.0 0.0 0.00 0.00 0.03 74 1010.7
20260508233828 15 286 0.0 0.0 0.00 0.00 0.03 73 1010.7
20260508233336 16 286 0.0 0.0 0.00 0.00 0.03 71 1010.6
20260508232823 16 286 0.0 0.0 0.00 0.00 0.03 70 1010.6
20260508232332 16 286 0.0 0.0 0.00 0.00 0.03 69 1010.6
20260508231819 16 287 0.0 0.0 0.00 0.00 0.03 67 1010.5
20260508231328 16 287 0.0 0.0 0.00 0.00 0.03 64 1010.5
20260508230819 16 287 0.0 0.0 0.00 0.00 0.03 64 1010.5
20260508230325 17 287 0.0 0.0 0.00 0.00 0.03 60 1010.3
20260508225834 17 287 0.0 0.0 0.00 0.00 0.03 58 1010.3
20260508225321 17 287 0.0 0.0 0.00 0.00 0.03 57 1010.3
20260508224830 17 287 0.0 0.0 0.00 0.00 0.03 57 1010.3
20260508224316 17 287 0.0 0.0 0.00 0.00 0.03 55 1010.3
20260508223827 17 272 0.0 0.0 0.00 0.00 0.03 53 1010.3
20260508223332 17 271 0.0 0.0 0.00 0.00 0.03 52 1010.4
20260508222822 17 275 0.0 0.0 0.00 0.00 0.00 52 1010.4
20260508222333 17 277 0.0 0.0 0.00 0.00 0.00 52 1010.4
20260508221821 17 277 0.0 0.0 0.00 0.00 0.00 51 1010.4
20260508221327 17 285 0.0 0.0 0.00 0.00 0.00 51 1010.4
20260508220838 18 274 0.0 0.0 0.00 0.00 0.00 51 1010.4
20260508220324 18 265 0.0 0.0 0.00 0.00 0.00 49 1010.4
20260508215831 18 268 0.0 0.0 0.00 0.00 0.00 48 1010.4
20260508215318 18 244 0.0 0.0 0.00 0.00 0.00 48 1010.4
20260508214826 18 259 0.0 0.0 0.00 0.00 0.00 48 1010.3
20260508214335 18 238 0.0 0.0 0.00 0.00 0.00 48 1010.3
20260508213336 18 229 1.6 0.0 0.00 0.00 0.00 47 1010.3
20260508212825 18 271 1.6 0.0 0.00 0.00 0.00 47 1010.3
20260508212332 18 234 1.6 0.0 0.00 0.00 0.00 46 1010.3
20260508211822 18 249 1.6 0.0 0.00 0.00 0.00 46 1010.7
20260508211329 18 255 1.6 0.0 0.00 0.00 0.00 47 1010.7
20260508210327 18 223 4.8 0.0 0.00 0.00 0.00 46 1010.9
20260508205836 18 221 4.8 0.0 0.00 0.00 0.00 46 1010.9
20260508205324 18 237 3.2 0.0 0.00 0.00 0.00 46 1010.9
20260508204815 18 248 1.6 0.0 0.00 0.00 0.00 46 1010.9
20260508203837 18 271 4.8 0.0 0.00 0.00 0.00 46 1010.9
20260508203324 18 197 6.4 0.0 0.00 0.00 0.00 45 1011.3
20260508202832 18 248 8.0 0.0 0.00 0.00 0.00 46 1011.3
20260508202321 18 229 6.4 0.0 0.00 0.00 0.00 45 1011.3
20260508201323 18 247 1.6 0.0 0.00 0.00 0.00 47 1011.2
20260508200320 18 237 3.2 0.0 0.00 0.00 0.00 47 1011.4
20260508195827 18 236 3.2 0.0 0.00 0.00 0.00 47 1011.4
20260508195320 18 243 3.2 0.0 0.00 0.00 0.00 46 1011.4
20260508194827 18 264 1.6 0.0 0.00 0.00 0.00 46 1011.5
20260508194336 18 239 6.4 0.0 0.00 0.00 0.00 46 1011.5
20260508193824 18 232 6.4 0.0 0.00 0.00 0.00 46 1011.5
20260508193331 18 229 3.2 0.0 0.00 0.00 0.00 47 1011.8
20260508192822 18 274 3.2 0.0 0.00 0.00 0.00 47 1011.8
20260508192329 19 250 3.2 0.0 0.00 0.00 0.00 47 1011.8
20260508191818 19 217 4.8 0.0 0.00 0.00 0.00 47 1012.0
20260508191325 19 273 6.4 0.0 0.00 0.00 0.00 48 1012.0
20260508185817 19 258 4.8 0.0 0.00 0.00 0.00 47 1012.2
20260508185328 19 261 6.4 0.0 0.00 0.00 0.00 48 1012.2
20260508184814 19 260 8.0 0.0 0.00 0.00 0.00 47 1012.4
20260508184326 19 234 8.0 0.0 0.00 0.00 0.00 47 1012.4
20260508182832 18 246 8.0 0.0 0.00 0.00 0.00 48 1012.6
20260508182320 18 244 6.4 0.0 0.00 0.00 0.00 50 1012.6
20260508181828 18 269 8.0 0.0 0.00 0.00 0.00 48 1012.7
20260508181318 18 243 8.0 0.0 0.00 0.00 0.00 48 1012.7
20260508180830 18 260 8.0 0.0 0.00 0.00 0.00 48 1012.7
20260508175317 18 257 4.8 0.0 0.00 0.00 0.00 49 1013.1
20260508174827 18 248 4.8 0.0 0.00 0.00 0.00 48 1013.2
20260508174335 18 259 8.0 0.0 0.00 0.00 0.00 50 1013.2
20260508173824 17 275 9.7 0.0 0.00 0.00 0.00 48 1013.2
20260508173331 17 250 8.0 0.0 0.00 0.00 0.00 48 1013.5
20260508172818 18 288 8.0 0.0 0.00 0.00 0.00 48 1013.5
20260508172328 18 286 8.0 0.0 0.00 0.00 0.00 49 1013.5
20260508171822 18 229 6.4 0.0 0.00 0.00 0.00 48 1013.7
20260508171330 18 248 6.4 0.0 0.00 0.00 0.00 49 1013.7
20260508170838 18 173 6.4 0.0 0.00 0.00 0.00 49 1013.7
20260508170324 18 225 8.0 0.0 0.00 0.00 0.00 48 1013.9
20260508165834 18 248 4.8 0.0 0.00 0.00 0.00 48 1013.9
20260508165322 18 218 3.2 0.0 0.00 0.00 0.00 51 1013.9
20260508164830 17 198 6.4 0.0 0.00 0.00 0.00 51 1014.2
20260508163830 18 250 6.4 0.0 0.00 0.00 0.00 50 1014.2
20260508163318 17 240 8.0 0.0 0.00 0.00 0.00 50 1014.2
20260508162831 17 223 4.8 0.0 0.00 0.00 0.00 49 1014.2
20260508162320 18 281 3.2 0.0 0.00 0.00 0.00 50 1014.2
20260508161827 17 188 3.2 0.0 0.00 0.00 0.00 51 1014.4
20260508161336 17 219 3.2 0.0 0.00 0.00 0.00 51 1014.4
20260508160333 17 291 6.4 0.0 0.00 0.00 0.00 52 1014.7
20260508155821 17 209 6.4 0.0 0.00 0.00 0.00 51 1014.7
20260508155329 17 213 4.8 0.0 0.00 0.00 0.00 51 1014.7
20260508154817 17 195 3.2 0.0 0.00 0.00 0.00 54 1014.8
20260508154324 17 248 4.8 0.0 0.00 0.00 0.00 55 1014.8
20260508153819 16 186 4.8 0.0 0.00 0.00 0.00 53 1014.8
20260508153327 16 194 3.2 0.0 0.00 0.00 0.00 55 1014.9
20260508152818 16 257 4.8 0.0 0.00 0.00 0.00 57 1014.9
20260508152325 15 241 8.0 0.0 0.00 0.00 0.00 56 1014.9
20260508151836 15 202 8.0 0.0 0.00 0.00 0.00 56 1015.1
20260508151323 15 227 6.4 0.0 0.00 0.00 0.00 55 1015.1
20260508150833 15 244 4.8 0.0 0.00 0.00 0.00 56 1015.1
20260508150321 15 286 4.8 0.0 0.00 0.00 0.00 55 1015.1
20260508145830 15 229 6.4 0.0 0.00 0.00 0.00 56 1015.1
20260508145323 15 277 6.4 0.0 0.00 0.00 0.00 56 1015.1
20260508144835 15 244 6.4 0.0 0.00 0.00 0.00 55 1015.3
20260508144321 15 257 6.4 0.0 0.00 0.00 0.00 55 1015.3
20260508143832 15 226 6.4 0.0 0.00 0.00 0.00 54 1015.3
20260508143319 15 290 4.8 0.0 0.00 0.00 0.00 56 1015.4
20260508142827 15 216 4.8 0.0 0.00 0.00 0.00 54 1015.4
20260508141827 14 227 8.0 0.0 0.00 0.00 0.00 54 1015.5
20260508141315 14 257 6.4 0.0 0.00 0.00 0.00 54 1015.5
20260508140830 14 257 8.0 0.0 0.00 0.00 0.00 55 1015.5
20260508140336 14 234 9.7 0.0 0.00 0.00 0.00 55 1015.5
20260508135823 13 252 9.7 0.0 0.00 0.00 0.00 53 1015.5
20260508135330 13 238 6.4 0.0 0.00 0.00 0.00 54 1015.5
20260508134821 14 279 6.4 0.0 0.00 0.00 0.00 55 1015.5
20260508134328 13 265 6.4 0.0 0.00 0.00 0.00 55 1015.5
20260508133819 13 303 6.4 0.0 0.00 0.00 0.00 55 1015.5
20260508133326 13 248 6.4 0.0 0.00 0.00 0.00 55 1015.4
20260508132836 13 245 4.8 0.0 0.00 0.00 0.00 56 1015.4
20260508132328 13 270 4.8 0.0 0.00 0.00 0.00 57 1015.4
20260508131817 12 238 3.2 0.0 0.00 0.00 0.00 59 1015.4
20260508131327 12 229 3.2 0.0 0.00 0.00 0.00 59 1015.4
20260508130818 12 183 3.2 0.0 0.00 0.00 0.00 60 1015.4
20260508125835 12 195 3.2 0.0 0.00 0.00 0.00 61 1015.4
20260508125322 11 226 3.2 0.0 0.00 0.00 0.00 62 1015.4
20260508124831 11 151 1.6 0.0 0.00 0.00 0.00 64 1015.4
20260508124320 11 246 1.6 0.0 0.00 0.00 0.00 63 1015.4
20260508123829 11 234 1.6 0.0 0.00 0.00 0.00 64 1015.4
20260508123320 11 236 1.6 0.0 0.00 0.00 0.00 65 1015.4
20260508122828 10 217 1.6 0.0 0.00 0.00 0.00 66 1015.4
20260508122316 10 236 1.6 0.0 0.00 0.00 0.00 67 1015.4
20260508121826 10 262 0.0 0.0 0.00 0.00 0.00 67 1015.5
20260508121334 10 234 0.0 0.0 0.00 0.00 0.00 67 1015.5
20260508120823 9 244 0.0 0.0 0.00 0.00 0.00 68 1015.5
20260508120329 9 229 0.0 0.0 0.00 0.00 0.00 68 1015.4
20260508115838 9 267 1.6 0.0 0.00 0.00 0.00 67 1015.4
20260508115324 9 263 1.6 0.0 0.00 0.00 0.00 67 1015.4
20260508114836 9 223 1.6 0.0 0.00 0.00 0.00 66 1015.1
20260508114323 9 250 1.6 0.0 0.00 0.00 0.00 67 1015.1
20260508113834 9 250 1.6 0.0 0.00 0.00 0.00 67 1015.1
20260508113320 9 246 1.6 0.0 0.00 0.00 0.00 68 1015.1
20260508112317 8 241 0.0 0.0 0.00 0.00 0.00 68 1015.1
20260508111317 8 242 1.6 0.0 0.00 0.00 0.00 67 1015.0
20260508110826 8 236 1.6 0.0 0.00 0.00 0.00 68 1015.0
20260508110332 8 254 1.6 0.0 0.00 0.00 0.00 67 1014.9
20260508105825 8 243 1.6 0.0 0.00 0.00 0.00 68 1014.9
20260508105332 8 234 0.0 0.0 0.00 0.00 0.00 68 1014.9
20260508104821 8 214 1.6 0.0 0.00 0.00 0.00 68 1014.7
20260508104329 8 215 1.6 0.0 0.00 0.00 0.00 69 1014.7
20260508103836 8 173 1.6 0.0 0.00 0.00 0.00 69 1014.7
20260508102831 8 247 0.0 0.0 0.00 0.00 0.00 69 1014.9
20260508102320 8 212 0.0 0.0 0.00 0.00 0.00 70 1014.9
20260508101316 8 240 0.0 0.0 0.00 0.00 0.00 70 1014.9
20260508100827 8 186 0.0 0.0 0.00 0.00 0.00 71 1014.9
20260508100319 8 193 0.0 0.0 0.00 0.00 0.00 71 1014.9
20260508095319 7 201 0.0 0.0 0.00 0.00 0.00 71 1014.9
20260508094829 7 207 0.0 0.0 0.00 0.00 0.00 71 1015.0
20260508094317 7 225 0.0 0.0 0.00 0.00 0.00 71 1015.0
20260508093826 7 219 0.0 0.0 0.00 0.00 0.00 71 1015.0
20260508093333 7 221 0.0 0.0 0.00 0.00 0.00 70 1015.0
20260508092821 8 229 0.0 0.0 0.00 0.00 0.00 70 1015.0
20260508092329 8 245 0.0 0.0 0.00 0.00 0.00 70 1015.0
20260508091821 8 255 0.0 0.0 0.00 0.00 0.00 70 1015.0
20260508091328 8 239 0.0 0.0 0.00 0.00 0.00 70 1015.0
20260508090838 8 259 0.0 0.0 0.00 0.00 0.00 70 1015.0
20260508090325 8 236 0.0 0.0 0.00 0.00 0.00 70 1015.0
20260508085324 7 214 0.0 0.0 0.00 0.00 0.00 71 1015.0
20260508084832 7 233 0.0 0.0 0.00 0.00 0.00 71 1015.0
20260508084319 7 237 0.0 0.0 0.00 0.00 0.00 71 1015.0
20260508083316 7 235 0.0 0.0 0.00 0.00 0.00 70 1015.1
20260508082823 7 253 0.0 0.0 0.00 0.00 0.00 70 1015.1
20260508081336 7 227 0.0 0.0 0.00 0.00 0.00 70 1015.0
20260508080825 7 236 0.0 0.0 0.00 0.00 0.00 70 1015.0
20260508075822 7 223 0.0 0.0 0.00 0.00 0.00 70 1015.0
20260508075330 7 212 0.0 0.0 0.00 0.00 0.00 70 1015.0
20260508074818 7 211 0.0 0.0 0.00 0.00 0.00 69 1015.0
20260508074325 7 198 0.0 0.0 0.00 0.00 0.00 69 1015.0
20260508073323 8 198 0.0 0.0 0.00 0.00 0.00 68 1015.1
20260508072832 8 213 0.0 0.0 0.00 0.00 0.00 67 1015.1
20260508071834 8 239 0.0 0.0 0.00 0.00 0.00 66 1015.1
20260508071323 8 265 0.0 0.0 0.00 0.00 0.00 66 1015.1
20260508065834 8 220 0.0 0.0 0.00 0.00 0.00 66 1015.2
20260508065324 8 217 0.0 0.0 0.00 0.00 0.00 66 1015.2
20260508064831 8 176 0.0 0.0 0.00 0.00 0.00 66 1015.6
20260508064319 8 235 0.0 0.0 0.00 0.00 0.00 65 1015.6
20260508063829 8 231 0.0 0.0 0.00 0.00 0.00 65 1015.6
20260508062833 8 211 0.0 0.0 0.00 0.00 0.00 65 1015.6
20260508062319 8 236 0.0 0.0 0.00 0.00 0.00 65 1015.6
20260508061830 8 238 0.0 0.0 0.00 0.00 0.00 65 1015.5
20260508061317 8 220 0.0 0.0 0.00 0.00 0.00 65 1015.5
20260508060828 8 225 0.0 0.0 0.00 0.00 0.00 65 1015.5
20260508060336 8 225 0.0 0.0 0.00 0.00 0.00 64 1015.6
20260508055825 9 215 0.0 0.0 0.00 0.00 0.00 64 1015.6
20260508055332 9 240 0.0 0.0 0.00 0.00 0.00 63 1015.6
20260508054823 9 195 0.0 0.0 0.00 0.00 0.00 63 1015.6
20260508054334 9 208 0.0 0.0 0.00 0.00 0.00 63 1015.6
20260508053335 9 227 0.0 0.0 0.00 0.00 0.00 62 1015.6
20260508052822 9 231 0.0 0.0 0.00 0.00 0.00 62 1015.6
20260508052332 9 242 0.0 0.0 0.00 0.00 0.00 61 1015.6
20260508051820 10 244 0.0 0.0 0.00 0.00 0.00 61 1015.6
20260508051328 10 209 1.6 0.0 0.00 0.00 0.00 61 1015.6
20260508050836 10 240 0.0 0.0 0.00 0.00 0.00 61 1015.6
20260508050322 9 223 0.0 0.0 0.00 0.00 0.00 61 1015.6
20260508045831 9 209 0.0 0.0 0.00 0.00 0.00 62 1015.6
20260508045322 9 194 0.0 0.0 0.00 0.00 0.00 62 1015.6
20260508044320 9 203 0.0 0.0 0.00 0.00 0.00 62 1015.6
20260508043828 9 203 0.0 0.0 0.00 0.00 0.00 63 1015.6
20260508043318 9 202 0.0 0.0 0.00 0.00 0.00 62 1015.6
20260508042335 9 201 0.0 0.0 0.00 0.00 0.00 62 1015.6
20260508041822 9 201 0.0 0.0 0.00 0.00 0.00 62 1015.6
20260508041331 9 200 0.0 0.0 0.00 0.00 0.00 62 1015.6
20260508040820 9 200 0.0 0.0 0.00 0.00 0.00 62 1015.6
20260508040329 9 201 0.0 0.0 0.00 0.00 0.03 62 1015.6
20260508035330 9 200 0.0 0.0 0.00 0.00 0.03 61 1015.6
20260508034818 10 200 0.0 0.0 0.00 0.00 0.03 61 1015.6
20260508033837 10 201 0.0 0.0 0.00 0.00 0.03 60 1015.6
20260508033323 10 202 0.0 0.0 0.00 0.00 0.03 60 1015.6
20260508032321 10 203 0.0 0.0 0.00 0.00 0.03 59 1015.6
20260508031832 10 202 0.0 0.0 0.00 0.00 0.03 58 1015.5
20260508031319 10 236 0.0 0.0 0.00 0.00 0.03 59 1015.5
20260508030830 10 207 0.0 0.0 0.00 0.00 0.03 59 1015.5
20260508030317 10 207 0.0 0.0 0.00 0.00 0.03 59 1015.5
20260508025825 10 207 0.0 0.0 0.00 0.00 0.03 59 1015.5
20260508025334 10 207 0.0 0.0 0.00 0.00 0.03 59 1015.5
20260508024822 10 207 0.0 0.0 0.00 0.00 0.03 59 1015.5
20260508024332 10 207 0.0 0.0 0.00 0.00 0.03 59 1015.5
20260508023820 10 208 0.0 0.0 0.00 0.00 0.03 59 1015.5
20260508023329 10 208 0.0 0.0 0.00 0.00 0.03 59 1015.3
20260508022816 10 208 0.0 0.0 0.00 0.00 0.03 59 1015.3
20260508022329 10 208 0.0 0.0 0.00 0.00 0.03 59 1015.3
20260508021837 10 207 0.0 0.0 0.00 0.00 0.03 58 1015.3
20260508021325 10 209 0.0 0.0 0.00 0.00 0.03 58 1015.3
20260508020833 10 215 0.0 0.0 0.00 0.00 0.03 59 1015.3
20260508020319 10 244 0.0 0.0 0.00 0.00 0.03 59 1015.5
20260508015828 10 244 0.0 0.0 0.00 0.00 0.03 58 1015.5
20260508015335 10 248 0.0 0.0 0.00 0.00 0.03 59 1015.5
20260508014823 10 249 0.0 0.0 0.00 0.00 0.03 59 1015.4
20260508014330 10 249 0.0 0.0 0.00 0.00 0.03 58 1015.4
20260508013823 10 248 0.0 0.0 0.00 0.00 0.03 58 1015.4